Weather in Syapsya

Russia / Republic of Karelia     61°55′22″N   33°22′25″E
temp.,
°C
wind,
m/s
gust,
m/s
humid.,
%
clouds,
%
prec.,
mm/h
press.,
hPa
HPBL,
m
6 may, thu
thu600:00−1ese238297 0.0 100673
03:00−1e2773100 0.0 1005184
06:000e3970100 0.0 1004386
09:00+1e51286100 0.2 1002562
12:00+2e61493100 0.4 1000674
15:00+1ene71798100 6.7 996676
18:00+3e81897100 5.4 989795
21:00+4sse61297100 10.2 986712
7 may, fri
fri700:00+1ssw61597100 0.0 989861
03:00+1ssw61493100 0.0 991918
06:00+1sw5119494 0.1 993967
09:00+1sw51296100 0.3 995858
12:00+4sw5108499 0.2 9981159
15:00+4sw4983100 0.3 10011103
18:00+3sw3785100 0.0 1003901
21:00+3s2698100 0.1 1004282
8 may, sat
sat800:00+3s2699100 0.1 1005270
03:00+2se2399100 0.1 1006103
06:00+3ese2398100 0.0 1005110
09:00+5e3590100 0.0 1004356
12:00+6e3687100 0.6 1003649
15:00+5nne3794100 2.1 1002845
18:00+4nne3797100 0.9 1001778
21:00+4n4896100 1.6 1000869
9 may, sun
sun900:00+4n51197100 0.3 1000878
03:00+4nnw61396100 0.3 10001061
06:00+3nw61388100 0.0 1002987
09:00+5nw61372100 0.0 10041247
12:00+8wnw6105499 0.0 10082110
15:00+9w6104743 0.1 10112409
18:00+9wsw5105279 0.1 10131929
21:00+6sw5136574 0.1 1014878
10 may, mon
mon1000:00+5sw5137995 0.0 1015734
03:00+3sw41182100 0.0 1017449
06:00+4ssw3984100 0.0 1018324
09:00+8ssw476489 0.0 10191025
12:00+6s3886100 0.1 10191084
15:00+6ssw3993100 0.1 1019599
18:00+7sw31094100 0.0 1020611
21:00+7s2898100 0.6 1020240